Grand Prairie, TX

7:33 AM CDT on September 20, 2017 (GMT -0500)
Grand Prairie Municipal

Weather History for KGPM - March, 2013

Change the Weather History Date:

Wednesday, March 27, 2013

  Actual Average (KRBD) Record (KRBD)
Temperature  
Mean Temperature 56 °F -  
Max Temperature 69 °F 67 °F 82 °F (2014)
Min Temperature 42 °F 49 °F 37 °F (2002)
Degree Days  
Heating Degree Days 10    
Growing Degree Days 6 (Base 50)    
Moisture  
Dew Point 31 °F    
Average Humidity 45    
Maximum Humidity 59    
Minimum Humidity 26    
Precipitation  
Precipitation 0.00 in - - ()
Sea Level Pressure  
Sea Level Pressure 30.25 in    
Wind  
Wind Speed 7 mph (SSE)    
Max Wind Speed 20 mph    
Max Gust Speed 26 mph    
Visibility 10 miles    
Events      
Averages and records for this station are not official NWS values.
T = Trace of Precipitation, MM = Missing Value Source: NWS Daily Summary

Daily Weather History Graph

Daily Weather History Graph

Search for Another Location

Airport or City:

Trip Planner

Search our weather history database for the weather conditions in past years. The results will help you decide how hot, cold, wet, or windy it might be!

Date:

Astronomy

Mar. 27, 2013 Rise Set
Actual Time 7:22 AM CDT 7:44 PM CDT
Civil Twilight 6:57 AM CDT 8:09 PM CDT
Nautical Twilight 6:28 AM CDT 8:38 PM CDT
Astronomical Twilight 5:59 AM CDT 9:07 PM CDT
Moon 8:25 PM CDT (3/27) 7:16 AM CDT (3/27)
Length of Visible Light 13h 11m
Length of Day
12h 22m
Full, 100% of the Moon is Illuminated
Mar 27
Full
Apr 2
Last Quarter
Apr 10
New
Apr 18
First Quarter
Apr 25
Full

Hourly Weather History & Observations

Time (CDT) Temp. Windchill Dew Point Humidity Pressure Visibility Wind Dir Wind Speed Gust Speed Precip Events Conditions
12:15 AM 44.6 °F 40.2 °F 23.0 °F 43% 30.33 in 10.0 mi SE 8.1 mph - N/A   Clear
12:35 AM 44.6 °F 42.2 °F 23.0 °F 43% 30.33 in 10.0 mi SE 4.6 mph - N/A   Clear
12:55 AM 44.6 °F 40.2 °F 24.8 °F 46% 30.33 in 10.0 mi SE 8.1 mph - N/A   Clear
1:15 AM 46.4 °F 43.5 °F 23.0 °F 40% 30.33 in 10.0 mi SE 5.8 mph - N/A   Clear
1:35 AM 44.6 °F 42.2 °F 24.8 °F 46% 30.32 in 10.0 mi SE 4.6 mph - N/A   Clear
1:55 AM 44.6 °F 41.4 °F 23.0 °F 43% 30.31 in 10.0 mi SE 5.8 mph - N/A   Clear
2:15 AM 44.6 °F 41.4 °F 23.0 °F 43% 30.31 in 10.0 mi SE 5.8 mph - N/A   Clear
2:55 AM 44.6 °F 41.4 °F 24.8 °F 46% 30.31 in 10.0 mi SE 5.8 mph - N/A   Clear
3:15 AM 42.8 °F 40.1 °F 26.6 °F 53% 30.30 in 10.0 mi SE 4.6 mph - N/A   Clear
3:35 AM 42.8 °F 39.3 °F 26.6 °F 53% 30.29 in 10.0 mi SE 5.8 mph - N/A   Clear
3:55 AM 42.8 °F 39.3 °F 26.6 °F 53% 30.29 in 10.0 mi SSE 5.8 mph - N/A   Clear
4:15 AM 44.6 °F 40.7 °F 26.6 °F 49% 30.28 in 10.0 mi SSE 6.9 mph - N/A   Clear
4:35 AM 42.8 °F 38.0 °F 26.6 °F 53% 30.28 in 10.0 mi SSE 8.1 mph - N/A   Clear
4:55 AM 42.8 °F 39.3 °F 26.6 °F 53% 30.29 in 10.0 mi SSE 5.8 mph - N/A   Clear
5:15 AM 42.8 °F 38.6 °F 26.6 °F 53% 30.29 in 10.0 mi South 6.9 mph - N/A   Clear
5:35 AM 42.8 °F 40.1 °F 26.6 °F 53% 30.29 in 10.0 mi SSE 4.6 mph - N/A   Clear
5:55 AM 42.8 °F 39.3 °F 26.6 °F 53% 30.29 in 10.0 mi South 5.8 mph - N/A   Clear
6:15 AM 42.8 °F 38.6 °F 23.0 °F 46% 30.30 in 10.0 mi South 6.9 mph - N/A   Clear
6:35 AM 42.8 °F 40.1 °F 24.8 °F 49% 30.31 in 10.0 mi SSW 4.6 mph - N/A   Clear
6:55 AM 42.8 °F 39.3 °F 26.6 °F 53% 30.31 in 10.0 mi South 5.8 mph - N/A   Clear
7:51 AM 44.6 °F 39.7 °F 24.8 °F 46% 30.31 in 10.0 mi SSE 9.2 mph - N/A   Clear
8:51 AM 48.2 °F - 26.6 °F 43% 30.33 in 10.0 mi South 9.2 mph - N/A   Clear
9:51 AM 53.6 °F - 30.2 °F 41% 30.34 in 10.0 mi South 9.2 mph 18.4 mph N/A   Clear
10:51 AM 57.2 °F - 32.0 °F 38% 30.31 in 10.0 mi SSE 13.8 mph 20.7 mph N/A   Clear
12:51 PM 64.4 °F - 28.4 °F 26% 30.28 in 10.0 mi South 16.1 mph 24.2 mph N/A   Clear
1:55 PM 66.2 °F - 32.0 °F 28% 30.25 in 10.0 mi South 16.1 mph 26.5 mph N/A   Clear
2:50 PM 68.0 °F - 33.8 °F 28% 30.21 in 10.0 mi North - - N/A   Clear
3:58 PM 69.8 °F - 37.4 °F 31% 30.17 in 10.0 mi South 19.6 mph 26.5 mph N/A   Clear
4:58 PM 69.8 °F - 35.6 °F 28% 30.14 in 10.0 mi North - - N/A   Clear
5:50 PM 69.8 °F - 37.4 °F 31% 30.13 in 10.0 mi North - - N/A   Clear
6:57 PM 68.0 °F - 37.4 °F 33% 30.11 in 10.0 mi South 13.8 mph 21.9 mph N/A   Clear
7:50 PM 66.2 °F - 39.2 °F 37% 30.11 in 10.0 mi SSE 10.4 mph 16.1 mph N/A   Clear
8:50 PM 64.4 °F - 39.2 °F 40% 30.13 in 10.0 mi SSE 9.2 mph - N/A   Clear
9:15 PM 62.6 °F - 41.0 °F 45% 30.14 in 10.0 mi South 8.1 mph - N/A   Clear
9:35 PM 62.6 °F - 41.0 °F 45% 30.15 in 10.0 mi South 9.2 mph - N/A   Clear
9:55 PM 60.8 °F - 41.0 °F 48% 30.16 in 10.0 mi SSE 5.8 mph - N/A   Clear
10:15 PM 60.8 °F - 41.0 °F 48% 30.17 in 10.0 mi SSE 4.6 mph - N/A   Clear
10:35 PM 59.0 °F - 42.8 °F 55% 30.17 in 10.0 mi SE 3.5 mph - N/A   Clear
10:55 PM 59.0 °F - 42.8 °F 55% 30.17 in 10.0 mi SSE 4.6 mph - N/A   Clear
11:15 PM 59.0 °F - 42.8 °F 55% 30.18 in 10.0 mi SSE 3.5 mph - N/A   Clear
11:35 PM 57.2 °F - 42.8 °F 59% 30.18 in 10.0 mi SSE 4.6 mph - N/A   Clear
11:55 PM 57.2 °F - 42.8 °F 59% 30.18 in 10.0 mi SSE 5.8 mph - N/A   Clear